Time,TemperatureF,DewpointF,PressureIn,WindDirection,WindDirectionDegrees,WindSpeedMPH,WindSpeedGustMPH,Humidity,HourlyPrecipIn,Conditions,Clouds,dailyrainin,SoftwareType,DateUTC
2013-05-12 00:01:00,61.0,53.0,30.12,NW,308,0.0,0.0,75,0.00,,---,0.00,VWS V14.01,2013-05-12 05:01:00,
2013-05-12 00:06:00,60.8,52.1,30.13,NW,308,0.0,0.0,73,0.00,,---,0.00,VWS V14.01,2013-05-12 05:06:00,
2013-05-12 00:11:00,60.9,52.2,30.13,NW,308,0.0,0.0,73,0.00,,---,0.00,VWS V14.01,2013-05-12 05:11:00,
2013-05-12 00:16:00,61.1,52.8,30.13,SW,217,0.0,0.0,74,0.00,,---,0.00,VWS V14.01,2013-05-12 05:16:00,
2013-05-12 00:21:00,61.8,53.1,30.13,NW,304,1.0,2.0,73,0.00,,---,0.00,VWS V14.01,2013-05-12 05:21:00,
2013-05-12 00:26:00,62.4,53.3,30.13,NW,307,1.0,2.0,72,0.00,,---,0.00,VWS V14.01,2013-05-12 05:26:00,
2013-05-12 00:31:00,62.6,53.5,30.13,NW,304,1.0,1.0,72,0.00,,---,0.00,VWS V14.01,2013-05-12 05:31:00,
2013-05-12 00:36:00,62.7,53.5,30.12,NW,304,0.0,1.0,72,0.00,,---,0.00,VWS V14.01,2013-05-12 05:36:00,
2013-05-12 00:41:00,62.7,53.5,30.12,WNW,301,0.0,2.0,72,0.00,,---,0.00,VWS V14.01,2013-05-12 05:41:00,
2013-05-12 00:46:00,62.6,53.8,30.12,West,267,0.0,2.0,73,0.00,,---,0.00,VWS V14.01,2013-05-12 05:46:00,
2013-05-12 00:51:00,62.6,53.8,30.13,West,274,1.0,2.0,73,0.00,,---,0.00,VWS V14.01,2013-05-12 05:51:00,
2013-05-12 00:56:00,62.6,54.2,30.12,WNW,293,0.0,2.0,74,0.00,,---,0.00,VWS V14.01,2013-05-12 05:56:00,
2013-05-12 01:01:00,62.5,54.1,30.12,WNW,297,2.0,2.0,74,0.00,,---,0.00,VWS V14.01,2013-05-12 06:01:00,
2013-05-12 01:06:00,62.6,54.2,30.12,NW,318,1.0,4.0,74,0.00,,---,0.00,VWS V14.01,2013-05-12 06:06:00,
2013-05-12 01:11:00,62.7,53.9,30.12,SE,142,1.0,5.0,73,0.00,,---,0.00,VWS V14.01,2013-05-12 06:11:00,
2013-05-12 01:16:00,62.9,54.1,30.12,NW,314,1.0,5.0,73,0.00,,---,0.00,VWS V14.01,2013-05-12 06:16:00,
2013-05-12 01:21:00,62.9,53.8,30.13,NNW,327,1.0,5.0,72,0.00,,---,0.00,VWS V14.01,2013-05-12 06:21:00,
2013-05-12 01:26:00,62.9,54.1,30.13,NW,315,3.0,5.0,73,0.00,,---,0.00,VWS V14.01,2013-05-12 06:26:00,
2013-05-12 01:31:00,62.9,54.1,30.13,NW,308,1.0,1.0,73,0.00,,---,0.00,VWS V14.01,2013-05-12 06:31:00,
2013-05-12 01:36:00,62.8,54.4,30.13,NW,315,0.0,1.0,74,0.00,,---,0.00,VWS V14.01,2013-05-12 06:36:00,
2013-05-12 01:41:00,62.6,54.6,30.13,NW,314,0.0,2.0,75,0.00,,---,0.00,VWS V14.01,2013-05-12 06:41:00,
2013-05-12 01:46:00,62.4,54.4,30.13,NW,321,0.0,2.0,75,0.00,,---,0.00,VWS V14.01,2013-05-12 06:46:00,
2013-05-12 01:51:00,62.4,54.8,30.13,NW,307,0.0,2.0,76,0.00,,---,0.00,VWS V14.01,2013-05-12 06:51:00,
2013-05-12 01:56:00,62.3,54.7,30.13,WNW,288,2.0,3.0,76,0.00,,---,0.00,VWS V14.01,2013-05-12 06:56:00,
2013-05-12 02:01:00,62.3,54.7,30.13,NW,308,1.0,2.0,76,0.00,,---,0.00,VWS V14.01,2013-05-12 07:01:00,
2013-05-12 02:06:00,62.2,54.2,30.13,NW,304,1.0,4.0,75,0.00,,---,0.00,VWS V14.01,2013-05-12 07:06:00,
2013-05-12 02:11:00,62.2,53.8,30.13,NW,326,0.0,5.0,74,0.00,,---,0.00,VWS V14.01,2013-05-12 07:11:00,
2013-05-12 02:16:00,62.0,53.3,30.13,NW,314,0.0,5.0,73,0.00,,---,0.00,VWS V14.01,2013-05-12 07:16:00,
2013-05-12 02:21:00,62.0,53.3,30.12,NW,313,0.0,5.0,73,0.00,,---,0.00,VWS V14.01,2013-05-12 07:21:00,
2013-05-12 02:26:00,61.9,53.2,30.12,NW,318,2.0,5.0,73,0.00,,---,0.00,VWS V14.01,2013-05-12 07:26:00,
2013-05-12 02:31:00,61.8,53.1,30.12,NW,324,0.0,0.0,73,0.00,,---,0.00,VWS V14.01,2013-05-12 07:31:00,
2013-05-12 02:36:00,61.5,52.8,30.12,NNW,330,2.0,3.0,73,0.00,,---,0.00,VWS V14.01,2013-05-12 07:36:00,
2013-05-12 02:41:00,61.5,52.8,30.12,NW,319,0.0,3.0,73,0.00,,---,0.00,VWS V14.01,2013-05-12 07:41:00,
2013-05-12 02:46:00,61.3,52.6,30.12,NW,323,2.0,3.0,73,0.00,,---,0.00,VWS V14.01,2013-05-12 07:46:00,
2013-05-12 02:51:00,61.2,52.5,30.12,NW,316,2.0,4.0,73,0.00,,---,0.00,VWS V14.01,2013-05-12 07:51:00,
2013-05-12 02:56:00,61.2,52.5,30.13,NW,323,3.0,4.0,73,0.00,,---,0.00,VWS V14.01,2013-05-12 07:56:00,
2013-05-12 03:01:00,61.1,51.6,30.12,NW,309,3.0,4.0,71,0.00,,---,0.00,VWS V14.01,2013-05-12 08:01:00,
2013-05-12 03:06:00,61.0,51.5,30.12,NW,326,1.0,4.0,71,0.00,,---,0.00,VWS V14.01,2013-05-12 08:06:00,
2013-05-12 03:11:00,60.9,51.5,30.13,NNW,341,0.0,4.0,71,0.00,,---,0.00,VWS V14.01,2013-05-12 08:11:00,
2013-05-12 03:16:00,60.8,51.0,30.13,NW,313,1.0,4.0,70,0.00,,---,0.00,VWS V14.01,2013-05-12 08:16:00,
2013-05-12 03:21:00,60.7,50.5,30.13,NNW,329,1.0,4.0,69,0.00,,---,0.00,VWS V14.01,2013-05-12 08:21:00,
2013-05-12 03:26:00,60.7,50.1,30.13,NW,326,2.0,4.0,68,0.00,,---,0.00,VWS V14.01,2013-05-12 08:26:00,
2013-05-12 03:31:00,60.5,49.9,30.14,NW,326,0.0,0.0,68,0.00,,---,0.00,VWS V14.01,2013-05-12 08:31:00,
2013-05-12 03:36:00,60.3,49.3,30.14,NE,42,0.0,3.0,67,0.00,,---,0.00,VWS V14.01,2013-05-12 08:36:00,
2013-05-12 03:41:00,60.2,49.2,30.14,NW,318,3.0,3.0,67,0.00,,---,0.00,VWS V14.01,2013-05-12 08:41:00,
2013-05-12 03:46:00,60.1,49.1,30.14,NW,312,2.0,3.0,67,0.00,,---,0.00,VWS V14.01,2013-05-12 08:46:00,
2013-05-12 03:51:00,60.0,48.6,30.14,NW,318,2.0,5.0,66,0.00,,---,0.00,VWS V14.01,2013-05-12 08:51:00,
2013-05-12 03:56:00,59.8,48.4,30.14,NNW,341,0.0,5.0,66,0.00,,---,0.00,VWS V14.01,2013-05-12 08:56:00,
2013-05-12 04:01:00,59.6,48.2,30.14,NW,311,0.0,0.0,66,0.00,,---,0.00,VWS V14.01,2013-05-12 09:01:00,
2013-05-12 04:06:00,59.3,48.0,30.14,NW,326,0.0,2.0,66,0.00,,---,0.00,VWS V14.01,2013-05-12 09:06:00,
2013-05-12 04:11:00,59.2,47.9,30.14,NW,323,0.0,3.0,66,0.00,,---,0.00,VWS V14.01,2013-05-12 09:11:00,
2013-05-12 04:16:00,59.0,47.3,30.14,NW,321,2.0,7.0,65,0.00,,---,0.00,VWS V14.01,2013-05-12 09:16:00,
2013-05-12 04:21:00,58.9,46.8,30.14,NE,54,0.0,7.0,64,0.00,,---,0.00,VWS V14.01,2013-05-12 09:21:00,
2013-05-12 04:26:00,58.8,46.2,30.15,NW,314,1.0,7.0,63,0.00,,---,0.00,VWS V14.01,2013-05-12 09:26:00,
2013-05-12 04:31:00,58.7,46.2,30.15,SSW,205,1.0,1.0,63,0.00,,---,0.00,VWS V14.01,2013-05-12 09:31:00,
2013-05-12 04:36:00,58.6,46.1,30.15,NW,316,1.0,4.0,63,0.00,,---,0.00,VWS V14.01,2013-05-12 09:36:00,
2013-05-12 04:41:00,58.5,45.5,30.15,NW,310,1.0,4.0,62,0.00,,---,0.00,VWS V14.01,2013-05-12 09:41:00,
2013-05-12 04:46:00,58.4,45.5,30.15,NNW,336,2.0,4.0,62,0.00,,---,0.00,VWS V14.01,2013-05-12 09:46:00,
2013-05-12 04:51:00,58.3,45.3,30.15,SW,232,0.0,4.0,62,0.00,,---,0.00,VWS V14.01,2013-05-12 09:51:00,
2013-05-12 04:56:00,58.2,44.8,30.16,NW,323,4.0,5.0,61,0.00,,---,0.00,VWS V14.01,2013-05-12 09:56:00,
2013-05-12 05:01:00,58.1,44.7,30.16,North,354,1.0,2.0,61,0.00,,---,0.00,VWS V14.01,2013-05-12 10:01:00,
2013-05-12 05:06:00,57.9,44.5,30.16,NNW,336,0.0,3.0,61,0.00,,---,0.00,VWS V14.01,2013-05-12 10:06:00,
2013-05-12 05:11:00,57.8,44.0,30.16,NNW,328,0.0,4.0,60,0.00,,---,0.00,VWS V14.01,2013-05-12 10:11:00,
2013-05-12 05:16:00,57.7,44.4,30.16,NNE,14,0.0,4.0,61,0.00,,---,0.00,VWS V14.01,2013-05-12 10:16:00,
2013-05-12 05:21:00,57.6,44.3,30.16,NW,304,2.0,4.0,61,0.00,,---,0.00,VWS V14.01,2013-05-12 10:21:00,
2013-05-12 05:26:00,57.7,44.4,30.16,WNW,288,1.0,6.0,61,0.00,,---,0.00,VWS V14.01,2013-05-12 10:26:00,
2013-05-12 05:31:00,57.5,44.2,30.16,SSW,197,2.0,4.0,61,0.00,,---,0.00,VWS V14.01,2013-05-12 10:31:00,
2013-05-12 05:36:00,57.6,44.3,30.16,NW,313,0.0,5.0,61,0.00,,---,0.00,VWS V14.01,2013-05-12 10:36:00,
2013-05-12 05:41:00,57.5,43.7,30.17,NNW,330,3.0,5.0,60,0.00,,---,0.00,VWS V14.01,2013-05-12 10:41:00,
2013-05-12 05:46:00,57.4,44.1,30.17,North,353,2.0,7.0,61,0.00,,---,0.00,VWS V14.01,2013-05-12 10:46:00,
2013-05-12 05:51:00,57.2,43.9,30.17,NNW,333,0.0,7.0,61,0.00,,---,0.00,VWS V14.01,2013-05-12 10:51:00,
2013-05-12 05:56:00,57.1,43.8,30.17,NE,50,2.0,7.0,61,0.00,,---,0.00,VWS V14.01,2013-05-12 10:56:00,
2013-05-12 06:01:00,56.9,43.6,30.17,North,359,3.0,5.0,61,0.00,,---,0.00,VWS V14.01,2013-05-12 11:01:00,
2013-05-12 06:06:00,56.8,43.9,30.17,NNW,328,0.0,5.0,62,0.00,,---,0.00,VWS V14.01,2013-05-12 11:06:00,
2013-05-12 06:11:00,56.7,43.8,30.18,NNE,33,0.0,5.0,62,0.00,,---,0.00,VWS V14.01,2013-05-12 11:11:00,
2013-05-12 06:16:00,56.6,43.8,30.18,NNE,30,0.0,5.0,62,0.00,,---,0.00,VWS V14.01,2013-05-12 11:16:00,
2013-05-12 06:20:00,56.5,43.7,30.18,NW,318,1.0,5.0,62,0.00,,---,0.00,VWS V14.01,2013-05-12 11:20:00,
2013-05-12 06:25:00,56.3,43.9,30.18,NE,40,0.0,5.0,63,0.00,,---,0.00,VWS V14.01,2013-05-12 11:25:00,
2013-05-12 06:30:00,56.2,44.2,30.18,NW,314,1.0,2.0,64,0.00,,---,0.00,VWS V14.01,2013-05-12 11:30:00,
2013-05-12 06:35:00,56.2,44.6,30.18,NW,320,0.0,4.0,65,0.00,,---,0.00,VWS V14.01,2013-05-12 11:35:00,
2013-05-12 06:40:00,56.0,44.0,30.18,NNW,331,0.0,4.0,64,0.00,,---,0.00,VWS V14.01,2013-05-12 11:40:00,
2013-05-12 06:45:00,55.9,43.9,30.19,NNW,346,0.0,4.0,64,0.00,,---,0.00,VWS V14.01,2013-05-12 11:45:00,
2013-05-12 06:50:00,55.9,43.9,30.19,NW,318,0.0,4.0,64,0.00,,---,0.00,VWS V14.01,2013-05-12 11:50:00,
2013-05-12 06:55:00,55.8,43.8,30.19,NNW,347,0.0,5.0,64,0.00,,---,0.00,VWS V14.01,2013-05-12 11:55:00,
2013-05-12 07:00:00,55.8,44.2,30.19,NW,323,1.0,5.0,65,0.00,,---,0.00,VWS V14.01,2013-05-12 12:00:00,
2013-05-12 07:05:00,55.7,44.1,30.19,WNW,300,1.0,3.0,65,0.00,,---,0.00,VWS V14.01,2013-05-12 12:05:00,
2013-05-12 07:10:00,55.7,44.1,30.19,North,350,2.0,3.0,65,0.00,,---,0.00,VWS V14.01,2013-05-12 12:10:00,
2013-05-12 07:15:00,55.7,44.1,30.19,NW,323,2.0,3.0,65,0.00,,---,0.00,VWS V14.01,2013-05-12 12:15:00,
2013-05-12 07:20:00,55.8,44.2,30.19,NW,316,1.0,3.0,65,0.00,,---,0.00,VWS V14.01,2013-05-12 12:20:00,
2013-05-12 07:25:00,55.8,44.2,30.20,NNW,330,0.0,3.0,65,0.00,,---,0.00,VWS V14.01,2013-05-12 12:25:00,
2013-05-12 07:30:00,56.0,44.8,30.20,NNW,332,2.0,3.0,66,0.00,,---,0.00,VWS V14.01,2013-05-12 12:30:00,
2013-05-12 07:35:00,56.4,45.2,30.20,NW,315,0.0,3.0,66,0.00,,---,0.00,VWS V14.01,2013-05-12 12:35:00,
2013-05-12 07:40:00,56.7,45.5,30.21,NW,311,2.0,3.0,66,0.00,,---,0.00,VWS V14.01,2013-05-12 12:40:00,
2013-05-12 07:45:00,57.1,45.9,30.21,SSE,159,0.0,3.0,66,0.00,,---,0.00,VWS V14.01,2013-05-12 12:45:00,
2013-05-12 07:50:00,57.8,46.5,30.21,NNW,331,2.0,3.0,66,0.00,,---,0.00,VWS V14.01,2013-05-12 12:50:00,
2013-05-12 07:55:00,58.2,46.1,30.21,NNE,23,1.0,4.0,64,0.00,,---,0.00,VWS V14.01,2013-05-12 12:55:00,
2013-05-12 08:00:00,58.5,46.8,30.21,North,354,0.0,4.0,65,0.00,,---,0.00,VWS V14.01,2013-05-12 13:00:00,
2013-05-12 08:05:00,58.8,46.7,30.21,NNE,22,3.0,4.0,64,0.00,,---,0.00,VWS V14.01,2013-05-12 13:05:00,
2013-05-12 08:10:00,59.4,47.2,30.22,NNE,13,1.0,4.0,64,0.00,,---,0.00,VWS V14.01,2013-05-12 13:10:00,
2013-05-12 08:15:00,59.9,46.9,30.22,NNE,12,2.0,4.0,62,0.00,,---,0.00,VWS V14.01,2013-05-12 13:15:00,
2013-05-12 08:20:00,60.5,47.0,30.22,NE,49,1.0,5.0,61,0.00,,---,0.00,VWS V14.01,2013-05-12 13:20:00,
2013-05-12 08:25:00,61.2,45.9,30.22,NNE,15,1.0,6.0,57,0.00,,---,0.00,VWS V14.01,2013-05-12 13:25:00,
2013-05-12 08:30:00,61.6,46.2,30.22,ENE,60,2.0,6.0,57,0.00,,---,0.00,VWS V14.01,2013-05-12 13:30:00,
2013-05-12 08:35:00,62.1,46.2,30.22,NE,37,0.0,8.0,56,0.00,,---,0.00,VWS V14.01,2013-05-12 13:35:00,
2013-05-12 08:40:00,62.4,46.0,30.22,NE,51,2.0,8.0,55,0.00,,---,0.00,VWS V14.01,2013-05-12 13:40:00,
2013-05-12 08:45:00,62.8,45.4,30.22,NE,52,3.0,8.0,53,0.00,,---,0.00,VWS V14.01,2013-05-12 13:45:00,
2013-05-12 08:50:00,63.1,45.2,30.22,NE,54,6.0,8.0,52,0.00,,---,0.00,VWS V14.01,2013-05-12 13:50:00,
2013-05-12 08:55:00,63.4,44.5,30.23,NNE,32,3.0,8.0,50,0.00,,---,0.00,VWS V14.01,2013-05-12 13:55:00,
2013-05-12 09:00:00,63.9,43.8,30.23,East,83,3.0,8.0,48,0.00,,---,0.00,VWS V14.01,2013-05-12 14:00:00,
2013-05-12 09:05:00,64.4,43.8,30.22,NNE,27,2.0,8.0,47,0.00,,---,0.00,VWS V14.01,2013-05-12 14:05:00,
2013-05-12 09:10:00,64.9,44.8,30.23,NE,40,3.0,8.0,48,0.00,,---,0.00,VWS V14.01,2013-05-12 14:10:00,
2013-05-12 09:15:00,65.1,42.1,30.23,NE,50,3.0,11.0,43,0.00,,---,0.00,VWS V14.01,2013-05-12 14:15:00,
2013-05-12 09:20:00,65.1,42.1,30.23,ENE,61,4.0,11.0,43,0.00,,---,0.00,VWS V14.01,2013-05-12 14:20:00,
2013-05-12 09:25:00,65.3,41.6,30.23,North,356,5.0,11.0,42,0.00,,---,0.00,VWS V14.01,2013-05-12 14:25:00,
2013-05-12 09:30:00,65.6,43.7,30.23,ENE,77,3.0,11.0,45,0.00,,---,0.00,VWS V14.01,2013-05-12 14:30:00,
2013-05-12 09:35:00,66.2,43.7,30.23,ENE,61,4.0,10.0,44,0.00,,---,0.00,VWS V14.01,2013-05-12 14:35:00,
2013-05-12 09:40:00,66.5,43.3,30.23,East,86,6.0,10.0,43,0.00,,---,0.00,VWS V14.01,2013-05-12 14:40:00,
2013-05-12 09:45:00,66.7,44.1,30.23,ESE,106,5.0,10.0,44,0.00,,---,0.00,VWS V14.01,2013-05-12 14:45:00,
2013-05-12 09:50:00,66.9,44.3,30.23,NE,43,4.0,10.0,44,0.00,,---,0.00,VWS V14.01,2013-05-12 14:50:00,
2013-05-12 09:55:00,67.1,42.0,30.23,ENE,73,7.0,10.0,40,0.00,,---,0.00,VWS V14.01,2013-05-12 14:55:00,
2013-05-12 10:00:00,67.0,41.9,30.23,NE,36,3.0,10.0,40,0.00,,---,0.00,VWS V14.01,2013-05-12 15:00:00,
2013-05-12 10:05:00,67.3,43.5,30.23,NE,47,4.0,8.0,42,0.00,,---,0.00,VWS V14.01,2013-05-12 15:05:00,
2013-05-12 10:10:00,67.5,43.0,30.23,ENE,76,3.0,8.0,41,0.00,,---,0.00,VWS V14.01,2013-05-12 15:10:00,
2013-05-12 10:15:00,67.7,43.2,30.23,ENE,72,3.0,8.0,41,0.00,,---,0.00,VWS V14.01,2013-05-12 15:15:00,
2013-05-12 10:20:00,68.3,42.4,30.23,East,91,3.0,8.0,39,0.00,,---,0.00,VWS V14.01,2013-05-12 15:20:00,
2013-05-12 10:25:00,68.6,42.0,30.22,ESE,117,3.0,8.0,38,0.00,,---,0.00,VWS V14.01,2013-05-12 15:25:00,
2013-05-12 10:30:00,68.5,42.6,30.22,East,80,3.0,8.0,39,0.00,,---,0.00,VWS V14.01,2013-05-12 15:30:00,
2013-05-12 10:35:00,68.7,44.7,30.22,ENE,66,9.0,9.0,42,0.00,,---,0.00,VWS V14.01,2013-05-12 15:35:00,
2013-05-12 10:40:00,69.3,41.2,30.22,NNE,21,4.0,9.0,36,0.00,,---,0.00,VWS V14.01,2013-05-12 15:40:00,
2013-05-12 10:45:00,69.8,42.4,30.22,ENE,58,8.0,9.0,37,0.00,,---,0.00,VWS V14.01,2013-05-12 15:45:00,
2013-05-12 10:50:00,69.7,41.6,30.22,SE,131,3.0,10.0,36,0.00,,---,0.00,VWS V14.01,2013-05-12 15:50:00,
2013-05-12 10:55:00,69.4,39.8,30.22,East,82,3.0,10.0,34,0.00,,---,0.00,VWS V14.01,2013-05-12 15:55:00,
2013-05-12 11:00:00,69.7,42.3,30.23,NE,42,3.0,10.0,37,0.00,,---,0.00,VWS V14.01,2013-05-12 16:00:00,
2013-05-12 11:05:00,69.6,42.2,30.23,East,79,3.0,7.0,37,0.00,,---,0.00,VWS V14.01,2013-05-12 16:05:00,
2013-05-12 11:10:00,69.9,41.8,30.22,SE,129,3.0,7.0,36,0.00,,---,0.00,VWS V14.01,2013-05-12 16:10:00,
2013-05-12 11:15:00,70.3,44.2,30.23,NE,49,1.0,7.0,39,0.00,,---,0.00,VWS V14.01,2013-05-12 16:15:00,
2013-05-12 11:20:00,70.5,43.0,30.23,ESE,114,3.0,7.0,37,0.00,,---,0.00,VWS V14.01,2013-05-12 16:20:00,
2013-05-12 11:25:00,70.4,41.5,30.23,ESE,115,3.0,7.0,35,0.00,,---,0.00,VWS V14.01,2013-05-12 16:25:00,
2013-05-12 11:30:00,71.2,42.9,30.23,NE,56,2.0,7.0,36,0.00,,---,0.00,VWS V14.01,2013-05-12 16:30:00,
2013-05-12 11:35:00,72.0,42.9,30.23,ENE,73,5.0,5.0,35,0.00,,---,0.00,VWS V14.01,2013-05-12 16:35:00,
2013-05-12 11:40:00,72.3,40.0,30.23,ENE,61,1.0,6.0,31,0.00,,---,0.00,VWS V14.01,2013-05-12 16:40:00,
2013-05-12 11:45:00,72.4,39.2,30.23,East,83,2.0,6.0,30,0.00,,---,0.00,VWS V14.01,2013-05-12 16:45:00,
2013-05-12 11:50:00,72.4,40.1,30.23,SSE,148,0.0,6.0,31,0.00,,---,0.00,VWS V14.01,2013-05-12 16:50:00,
2013-05-12 11:55:00,73.1,41.5,30.23,East,94,2.0,6.0,32,0.00,,---,0.00,VWS V14.01,2013-05-12 16:55:00,
2013-05-12 12:00:00,73.9,43.8,30.23,ENE,64,2.0,6.0,34,0.00,,---,0.00,VWS V14.01,2013-05-12 17:00:00,
2013-05-12 12:05:00,74.9,41.4,30.23,ENE,60,1.0,4.0,30,0.00,,---,0.00,VWS V14.01,2013-05-12 17:05:00,
2013-05-12 12:10:00,75.4,41.8,30.23,NNW,337,1.0,4.0,30,0.00,,---,0.00,VWS V14.01,2013-05-12 17:10:00,
2013-05-12 12:15:00,75.2,43.3,30.23,NE,41,2.0,5.0,32,0.00,,---,0.00,VWS V14.01,2013-05-12 17:15:00,
2013-05-12 12:20:00,74.3,40.9,30.23,NNW,328,3.0,6.0,30,0.00,,---,0.00,VWS V14.01,2013-05-12 17:20:00,
2013-05-12 12:25:00,74.0,39.8,30.22,ENE,76,1.0,6.0,29,0.00,,---,0.00,VWS V14.01,2013-05-12 17:25:00,
2013-05-12 12:30:00,74.4,39.2,30.22,SE,135,0.0,6.0,28,0.00,,---,0.00,VWS V14.01,2013-05-12 17:30:00,
2013-05-12 12:35:00,74.5,39.3,30.22,ENE,64,1.0,1.0,28,0.00,,---,0.00,VWS V14.01,2013-05-12 17:35:00,
2013-05-12 12:40:00,75.5,41.0,30.22,ENE,58,4.0,4.0,29,0.00,,---,0.00,VWS V14.01,2013-05-12 17:40:00,
2013-05-12 12:45:00,75.7,39.4,30.22,East,101,3.0,4.0,27,0.00,,---,0.00,VWS V14.01,2013-05-12 17:45:00,
2013-05-12 12:50:00,74.5,39.3,30.21,NW,311,1.0,6.0,28,0.00,,---,0.00,VWS V14.01,2013-05-12 17:50:00,
2013-05-12 12:55:00,74.1,40.7,30.21,NW,314,2.0,6.0,30,0.00,,---,0.00,VWS V14.01,2013-05-12 17:55:00,
2013-05-12 13:00:00,74.1,39.8,30.21,ENE,72,2.0,6.0,29,0.00,,---,0.00,VWS V14.01,2013-05-12 18:00:00,
2013-05-12 13:05:00,75.6,42.0,30.21,East,90,1.0,3.0,30,0.00,,---,0.00,VWS V14.01,2013-05-12 18:05:00,
2013-05-12 13:10:00,76.2,39.8,30.21,SSE,147,1.0,3.0,27,0.00,,---,0.00,VWS V14.01,2013-05-12 18:10:00,
2013-05-12 13:15:00,76.5,39.1,30.20,ENE,72,0.0,3.0,26,0.00,,---,0.00,VWS V14.01,2013-05-12 18:15:00,
2013-05-12 13:20:00,76.6,39.2,30.20,ENE,66,1.0,3.0,26,0.00,,---,0.00,VWS V14.01,2013-05-12 18:20:00,
2013-05-12 13:25:00,75.9,39.6,30.20,SSW,198,1.0,4.0,27,0.00,,---,0.00,VWS V14.01,2013-05-12 18:25:00,
2013-05-12 13:30:00,76.0,39.6,30.20,SSW,205,2.0,4.0,27,0.00,,---,0.00,VWS V14.01,2013-05-12 18:30:00,
2013-05-12 13:35:00,76.1,39.7,30.20,North,349,1.0,3.0,27,0.00,,---,0.00,VWS V14.01,2013-05-12 18:35:00,
2013-05-12 13:40:00,76.8,39.3,30.20,SSE,153,0.0,3.0,26,0.00,,---,0.00,VWS V14.01,2013-05-12 18:40:00,
2013-05-12 13:45:00,77.5,41.9,30.20,NNW,345,1.0,3.0,28,0.00,,---,0.00,VWS V14.01,2013-05-12 18:45:00,
2013-05-12 13:50:00,77.6,40.0,30.20,WSW,239,2.0,3.0,26,0.00,,---,0.00,VWS V14.01,2013-05-12 18:50:00,
2013-05-12 13:55:00,77.0,39.5,30.20,SE,143,1.0,3.0,26,0.00,,---,0.00,VWS V14.01,2013-05-12 18:55:00,
2013-05-12 14:00:00,76.8,38.3,30.20,SW,217,1.0,3.0,25,0.00,,---,0.00,VWS V14.01,2013-05-12 19:00:00,
2013-05-12 14:05:00,76.6,39.2,30.19,SSE,150,4.0,4.0,26,0.00,,---,0.00,VWS V14.01,2013-05-12 19:05:00,
2013-05-12 14:10:00,76.2,37.8,30.19,SSE,163,2.0,4.0,25,0.00,,---,0.00,VWS V14.01,2013-05-12 19:10:00,
2013-05-12 14:15:00,76.8,39.3,30.19,SSW,212,1.0,4.0,26,0.00,,---,0.00,VWS V14.01,2013-05-12 19:15:00,
2013-05-12 14:20:00,77.2,38.7,30.19,SSW,203,0.0,4.0,25,0.00,,---,0.00,VWS V14.01,2013-05-12 19:20:00,
2013-05-12 14:25:00,77.3,38.8,30.19,NW,307,1.0,4.0,25,0.00,,---,0.00,VWS V14.01,2013-05-12 19:25:00,
2013-05-12 14:30:00,76.2,38.8,30.19,NW,305,1.0,4.0,26,0.00,,---,0.00,VWS V14.01,2013-05-12 19:30:00,
2013-05-12 14:35:00,75.6,38.3,30.19,NW,317,0.0,3.0,26,0.00,,---,0.00,VWS V14.01,2013-05-12 19:35:00,
2013-05-12 14:40:00,76.0,40.6,30.18,NNW,328,1.0,3.0,28,0.00,,---,0.00,VWS V14.01,2013-05-12 19:40:00,
2013-05-12 14:45:00,76.8,40.3,30.18,NE,49,1.0,3.0,27,0.00,,---,0.00,VWS V14.01,2013-05-12 19:45:00,
2013-05-12 14:50:00,78.0,38.3,30.18,ENE,75,0.0,3.0,24,0.00,,---,0.00,VWS V14.01,2013-05-12 19:50:00,
2013-05-12 14:55:00,78.6,38.8,30.18,ENE,70,1.0,3.0,24,0.00,,---,0.00,VWS V14.01,2013-05-12 19:55:00,
2013-05-12 15:00:00,78.6,39.9,30.18,ESE,112,1.0,3.0,25,0.00,,---,0.00,VWS V14.01,2013-05-12 20:00:00,
2013-05-12 15:05:00,78.3,38.6,30.18,East,93,2.0,4.0,24,0.00,,---,0.00,VWS V14.01,2013-05-12 20:05:00,
2013-05-12 15:10:00,77.6,39.0,30.17,ESE,110,1.0,4.0,25,0.00,,---,0.00,VWS V14.01,2013-05-12 20:10:00,
2013-05-12 15:15:00,77.9,39.3,30.17,SE,145,0.0,4.0,25,0.00,,---,0.00,VWS V14.01,2013-05-12 20:15:00,
2013-05-12 15:20:00,79.2,38.2,30.17,ESE,103,2.0,4.0,23,0.00,,---,0.00,VWS V14.01,2013-05-12 20:20:00,
2013-05-12 15:25:00,79.6,43.7,30.17,ESE,112,0.0,4.0,28,0.00,,---,0.00,VWS V14.01,2013-05-12 20:25:00,
2013-05-12 15:30:00,80.2,40.2,30.16,ENE,65,3.0,4.0,24,0.00,,---,0.00,VWS V14.01,2013-05-12 20:30:00,
2013-05-12 15:35:00,80.7,38.4,30.16,East,86,1.0,2.0,22,0.00,,---,0.00,VWS V14.01,2013-05-12 20:35:00,
2013-05-12 15:40:00,81.1,37.5,30.16,SE,127,2.0,2.0,21,0.00,,---,0.00,VWS V14.01,2013-05-12 20:40:00,
2013-05-12 15:44:00,80.2,38.0,30.16,NNW,327,0.0,2.0,22,0.00,,---,0.00,VWS V14.01,2013-05-12 20:44:00,
2013-05-12 15:50:00,80.1,40.1,30.16,SE,138,2.0,4.0,24,0.00,,---,0.00,VWS V14.01,2013-05-12 20:50:00,
2013-05-12 15:55:00,79.5,39.6,30.16,SSE,159,5.0,5.0,24,0.00,,---,0.00,VWS V14.01,2013-05-12 20:55:00,
2013-05-12 16:00:00,78.8,39.0,30.16,SW,225,3.0,5.0,24,0.00,,---,0.00,VWS V14.01,2013-05-12 21:00:00,
2013-05-12 16:05:00,78.2,38.5,30.16,South,190,2.0,5.0,24,0.00,,---,0.00,VWS V14.01,2013-05-12 21:05:00,
2013-05-12 16:10:00,78.8,41.0,30.15,NW,319,2.0,5.0,26,0.00,,---,0.00,VWS V14.01,2013-05-12 21:10:00,
2013-05-12 16:15:00,79.1,38.2,30.15,South,173,3.0,5.0,23,0.00,,---,0.00,VWS V14.01,2013-05-12 21:15:00,
2013-05-12 16:20:00,79.0,39.2,30.15,East,82,0.0,5.0,24,0.00,,---,0.00,VWS V14.01,2013-05-12 21:20:00,
2013-05-12 16:25:00,79.9,38.8,30.15,SE,130,2.0,5.0,23,0.00,,---,0.00,VWS V14.01,2013-05-12 21:25:00,
2013-05-12 16:29:00,79.7,38.7,30.15,East,84,1.0,5.0,23,0.00,,---,0.00,VWS V14.01,2013-05-12 21:29:00,
2013-05-12 16:34:00,79.4,38.4,30.15,SE,126,1.0,3.0,23,0.00,,---,0.00,VWS V14.01,2013-05-12 21:34:00,
2013-05-12 16:39:00,78.8,36.8,30.15,ESE,121,1.0,5.0,22,0.00,,---,0.00,VWS V14.01,2013-05-12 21:39:00,
2013-05-12 16:44:00,78.3,37.5,30.15,ESE,103,2.0,5.0,23,0.00,,---,0.00,VWS V14.01,2013-05-12 21:44:00,
2013-05-12 16:49:00,78.8,39.0,30.15,SE,125,0.0,5.0,24,0.00,,---,0.00,VWS V14.01,2013-05-12 21:49:00,
2013-05-12 16:54:00,79.1,39.2,30.15,SSE,163,2.0,5.0,24,0.00,,---,0.00,VWS V14.01,2013-05-12 21:54:00,
2013-05-12 16:59:00,79.4,37.3,30.15,SW,217,1.0,5.0,22,0.00,,---,0.00,VWS V14.01,2013-05-12 21:59:00,
2013-05-12 17:04:00,79.6,39.7,30.14,NW,307,1.0,2.0,24,0.00,,---,0.00,VWS V14.01,2013-05-12 22:04:00,
2013-05-12 17:09:00,79.2,39.3,30.14,NW,307,2.0,3.0,24,0.00,,---,0.00,VWS V14.01,2013-05-12 22:09:00,
2013-05-12 17:14:00,78.7,41.0,30.14,NNW,346,0.0,3.0,26,0.00,,---,0.00,VWS V14.01,2013-05-12 22:14:00,
2013-05-12 17:19:00,79.6,39.7,30.13,ESE,107,1.0,3.0,24,0.00,,---,0.00,VWS V14.01,2013-05-12 22:19:00,
2013-05-12 17:24:00,79.4,40.5,30.14,SE,146,2.0,5.0,25,0.00,,---,0.00,VWS V14.01,2013-05-12 22:24:00,
2013-05-12 17:29:00,79.1,40.3,30.14,SSE,165,2.0,5.0,25,0.00,,---,0.00,VWS V14.01,2013-05-12 22:29:00,
2013-05-12 17:35:00,78.6,38.8,30.13,SE,139,0.0,3.0,24,0.00,,---,0.00,VWS V14.01,2013-05-12 22:35:00,
2013-05-12 17:40:00,78.6,38.8,30.13,SSW,208,0.0,3.0,24,0.00,,---,0.00,VWS V14.01,2013-05-12 22:40:00,
2013-05-12 17:45:00,79.5,42.6,30.13,SSW,208,0.0,3.0,27,0.00,,---,0.00,VWS V14.01,2013-05-12 22:45:00,
2013-05-12 17:50:00,80.6,41.6,30.13,SSW,203,0.0,3.0,25,0.00,,---,0.00,VWS V14.01,2013-05-12 22:50:00,
2013-05-12 17:55:00,80.7,42.7,30.13,ESE,117,0.0,3.0,26,0.00,,---,0.00,VWS V14.01,2013-05-12 22:55:00,
2013-05-12 18:00:00,80.7,40.6,30.13,ESE,117,0.0,3.0,24,0.00,,---,0.00,VWS V14.01,2013-05-12 23:00:00,
2013-05-12 18:04:00,80.6,39.4,30.13,ESE,115,1.0,2.0,23,0.00,,---,0.00,VWS V14.01,2013-05-12 23:04:00,
2013-05-12 18:09:00,79.9,39.9,30.13,SSE,149,0.0,2.0,24,0.00,,---,0.00,VWS V14.01,2013-05-12 23:09:00,
2013-05-12 18:14:00,79.7,36.3,30.13,ESE,111,0.0,2.0,21,0.00,,---,0.00,VWS V14.01,2013-05-12 23:14:00,
2013-05-12 18:19:00,79.7,38.7,30.13,ESE,111,0.0,2.0,23,0.00,,---,0.00,VWS V14.01,2013-05-12 23:19:00,
2013-05-12 18:24:00,79.5,39.6,30.13,ESE,113,0.0,2.0,24,0.00,,---,0.00,VWS V14.01,2013-05-12 23:24:00,
2013-05-12 18:29:00,79.0,40.2,30.13,SE,139,0.0,2.0,25,0.00,,---,0.00,VWS V14.01,2013-05-12 23:29:00,
2013-05-12 18:34:00,78.4,38.7,30.13,East,90,2.0,4.0,24,0.00,,---,0.00,VWS V14.01,2013-05-12 23:34:00,
2013-05-12 18:39:00,76.8,40.3,30.12,SE,124,3.0,5.0,27,0.00,,---,0.00,VWS V14.01,2013-05-12 23:39:00,
2013-05-12 18:44:00,75.8,41.3,30.12,NNE,21,0.0,5.0,29,0.00,,---,0.00,VWS V14.01,2013-05-12 23:44:00,
2013-05-12 18:49:00,75.5,41.0,30.12,East,84,1.0,5.0,29,0.00,,---,0.00,VWS V14.01,2013-05-12 23:49:00,
2013-05-12 18:54:00,75.3,40.9,30.12,East,82,0.0,5.0,29,0.00,,---,0.00,VWS V14.01,2013-05-12 23:54:00,
2013-05-12 18:59:00,75.2,44.2,30.12,ENE,72,0.0,5.0,33,0.00,,---,0.00,VWS V14.01,2013-05-12 23:59:00,
2013-05-12 19:04:00,75.0,42.3,30.12,East,86,1.0,2.0,31,0.00,,---,0.00,VWS V14.01,2013-05-13 00:04:00,
2013-05-12 19:09:00,74.4,42.7,30.12,East,82,1.0,2.0,32,0.00,,---,0.00,VWS V14.01,2013-05-13 00:09:00,
2013-05-12 19:14:00,73.9,43.8,30.12,East,96,0.0,2.0,34,0.00,,---,0.00,VWS V14.01,2013-05-13 00:14:00,
2013-05-12 19:19:00,73.7,45.1,30.12,East,94,0.0,2.0,36,0.00,,---,0.00,VWS V14.01,2013-05-13 00:19:00,
2013-05-12 19:24:00,73.3,48.2,30.12,East,100,0.0,2.0,41,0.00,,---,0.00,VWS V14.01,2013-05-13 00:24:00,
2013-05-12 19:29:00,72.6,48.2,30.12,East,100,0.0,2.0,42,0.00,,---,0.00,VWS V14.01,2013-05-13 00:29:00,
2013-05-12 19:34:00,72.1,47.1,30.12,East,98,0.0,2.0,41,0.00,,---,0.00,VWS V14.01,2013-05-13 00:34:00,
2013-05-12 19:39:00,72.0,47.7,30.12,East,84,1.0,2.0,42,0.00,,---,0.00,VWS V14.01,2013-05-13 00:39:00,
2013-05-12 19:44:00,71.8,48.7,30.12,ENE,77,0.0,2.0,44,0.00,,---,0.00,VWS V14.01,2013-05-13 00:44:00,
2013-05-12 19:49:00,71.1,49.3,30.12,ENE,76,0.0,2.0,46,0.00,,---,0.00,VWS V14.01,2013-05-13 00:49:00,
2013-05-12 19:54:00,70.4,49.2,30.12,East,79,0.0,2.0,47,0.00,,---,0.00,VWS V14.01,2013-05-13 00:54:00,
2013-05-12 19:59:00,70.0,49.4,30.12,East,79,0.0,2.0,48,0.00,,---,0.00,VWS V14.01,2013-05-13 00:59:00,
2013-05-12 20:04:00,69.3,48.8,30.12,East,79,0.0,0.0,48,0.00,,---,0.00,VWS V14.01,2013-05-13 01:04:00,
2013-05-12 20:09:00,68.7,48.8,30.12,East,79,0.0,0.0,49,0.00,,---,0.00,VWS V14.01,2013-05-13 01:09:00,
2013-05-12 20:14:00,68.1,48.8,30.12,East,79,0.0,0.0,50,0.00,,---,0.00,VWS V14.01,2013-05-13 01:14:00,
2013-05-12 20:19:00,67.3,48.0,30.12,East,79,0.0,0.0,50,0.00,,---,0.00,VWS V14.01,2013-05-13 01:19:00,
2013-05-12 20:24:00,66.7,47.5,30.12,East,79,0.0,0.0,50,0.00,,---,0.00,VWS V14.01,2013-05-13 01:24:00,
2013-05-12 20:29:00,66.3,46.6,30.12,East,79,0.0,0.0,49,0.00,,---,0.00,VWS V14.01,2013-05-13 01:29:00,
2013-05-12 20:34:00,66.1,49.0,30.12,East,79,0.0,0.0,54,0.00,,---,0.00,VWS V14.01,2013-05-13 01:34:00,
2013-05-12 20:39:00,65.8,49.7,30.12,East,79,0.0,0.0,56,0.00,,---,0.00,VWS V14.01,2013-05-13 01:39:00,
2013-05-12 20:44:00,65.5,50.3,30.12,East,79,0.0,0.0,58,0.00,,---,0.00,VWS V14.01,2013-05-13 01:44:00,
2013-05-12 20:49:00,65.2,51.0,30.12,East,79,0.0,0.0,60,0.00,,---,0.00,VWS V14.01,2013-05-13 01:49:00,
2013-05-12 20:54:00,65.0,51.2,30.12,East,79,0.0,0.0,61,0.00,,---,0.00,VWS V14.01,2013-05-13 01:54:00,
2013-05-12 20:59:00,64.9,51.2,30.13,East,79,0.0,0.0,61,0.00,,---,0.00,VWS V14.01,2013-05-13 01:59:00,
2013-05-12 21:04:00,64.8,51.5,30.13,East,79,0.0,0.0,62,0.00,,---,0.00,VWS V14.01,2013-05-13 02:04:00,
2013-05-12 21:09:00,64.6,52.2,30.13,East,79,0.0,0.0,64,0.00,,---,0.00,VWS V14.01,2013-05-13 02:09:00,
2013-05-12 21:14:00,64.3,53.1,30.13,East,79,0.0,0.0,67,0.00,,---,0.00,VWS V14.01,2013-05-13 02:14:00,
2013-05-12 21:19:00,64.0,52.4,30.13,East,79,0.0,0.0,66,0.00,,---,0.00,VWS V14.01,2013-05-13 02:19:00,
2013-05-12 21:24:00,63.6,52.9,30.13,East,79,0.0,0.0,68,0.00,,---,0.00,VWS V14.01,2013-05-13 02:24:00,
2013-05-12 21:29:00,63.3,53.0,30.14,East,79,0.0,0.0,69,0.00,,---,0.00,VWS V14.01,2013-05-13 02:29:00,
2013-05-12 21:34:00,63.0,51.5,30.14,East,79,0.0,0.0,66,0.00,,---,0.00,VWS V14.01,2013-05-13 02:34:00,
2013-05-12 21:39:00,63.2,50.8,30.14,NW,318,0.0,1.0,64,0.00,,---,0.00,VWS V14.01,2013-05-13 02:39:00,
2013-05-12 21:44:00,63.4,48.8,30.14,NW,318,0.0,1.0,59,0.00,,---,0.00,VWS V14.01,2013-05-13 02:44:00,
2013-05-12 21:49:00,63.4,47.5,30.14,NNW,334,0.0,1.0,56,0.00,,---,0.00,VWS V14.01,2013-05-13 02:49:00,
2013-05-12 21:54:00,63.7,46.3,30.14,NNW,334,0.0,1.0,53,0.00,,---,0.00,VWS V14.01,2013-05-13 02:54:00,
2013-05-12 21:59:00,64.0,46.0,30.15,North,351,0.0,1.0,52,0.00,,---,0.00,VWS V14.01,2013-05-13 02:59:00,
2013-05-12 22:04:00,64.4,47.4,30.15,North,351,0.0,0.0,54,0.00,,---,0.00,VWS V14.01,2013-05-13 03:04:00,
2013-05-12 22:09:00,64.3,51.5,30.15,ESE,104,0.0,0.0,63,0.00,,---,0.00,VWS V14.01,2013-05-13 03:09:00,
2013-05-12 22:14:00,63.9,52.7,30.15,ESE,104,0.0,0.0,67,0.00,,---,0.00,VWS V14.01,2013-05-13 03:14:00,
2013-05-12 22:19:00,63.3,52.6,30.15,SE,124,0.0,1.0,68,0.00,,---,0.00,VWS V14.01,2013-05-13 03:19:00,
2013-05-12 22:24:00,62.8,51.3,30.15,ESE,117,0.0,1.0,66,0.00,,---,0.00,VWS V14.01,2013-05-13 03:24:00,
2013-05-12 22:29:00,62.4,51.7,30.15,SE,127,1.0,1.0,68,0.00,,---,0.00,VWS V14.01,2013-05-13 03:29:00,
2013-05-12 22:34:00,61.9,50.8,30.15,ESE,120,1.0,1.0,67,0.00,,---,0.00,VWS V14.01,2013-05-13 03:34:00,
2013-05-12 22:39:00,61.8,50.3,30.15,SSE,150,0.0,2.0,66,0.00,,---,0.00,VWS V14.01,2013-05-13 03:39:00,
2013-05-12 22:44:00,61.8,51.1,30.16,SSE,164,0.0,2.0,68,0.00,,---,0.00,VWS V14.01,2013-05-13 03:44:00,
2013-05-12 22:49:00,61.6,51.3,30.16,SSE,164,0.0,2.0,69,0.00,,---,0.00,VWS V14.01,2013-05-13 03:49:00,
2013-05-12 22:54:00,61.2,50.6,30.16,SSE,166,0.0,2.0,68,0.00,,---,0.00,VWS V14.01,2013-05-13 03:54:00,
2013-05-12 22:59:00,60.8,48.6,30.16,SSE,163,0.0,2.0,64,0.00,,---,0.00,VWS V14.01,2013-05-13 03:59:00,
2013-05-12 23:01:00,60.8,48.1,30.16,SSE,163,0.0,0.0,63,0.00,,---,0.00,VWS V14.01,2013-05-13 04:01:00,
2013-05-12 23:06:00,61.0,48.8,30.16,SSE,158,0.0,0.0,64,0.00,,---,0.00,VWS V14.01,2013-05-13 04:06:00,
2013-05-12 23:11:00,61.1,49.3,30.16,SSE,158,0.0,0.0,65,0.00,,---,0.00,VWS V14.01,2013-05-13 04:11:00,
2013-05-12 23:16:00,61.2,49.3,30.16,SSE,164,0.0,1.0,65,0.00,,---,0.00,VWS V14.01,2013-05-13 04:16:00,
2013-05-12 23:21:00,61.3,50.3,30.16,SSE,165,0.0,1.0,67,0.00,,---,0.00,VWS V14.01,2013-05-13 04:21:00,
2013-05-12 23:26:00,61.1,50.1,30.16,SSE,160,0.0,1.0,67,0.00,,---,0.00,VWS V14.01,2013-05-13 04:26:00,
2013-05-12 23:31:00,60.9,49.9,30.16,SSE,159,0.0,0.0,67,0.00,,---,0.00,VWS V14.01,2013-05-13 04:31:00,
2013-05-12 23:36:00,60.8,49.4,30.17,SSE,159,0.0,0.0,66,0.00,,---,0.00,VWS V14.01,2013-05-13 04:36:00,
2013-05-12 23:41:00,60.6,49.2,30.17,SSE,159,0.0,0.0,66,0.00,,---,0.00,VWS V14.01,2013-05-13 04:41:00,
2013-05-12 23:46:00,60.4,49.4,30.17,SSE,159,0.0,0.0,67,0.00,,---,0.00,VWS V14.01,2013-05-13 04:46:00,
2013-05-12 23:51:00,60.3,48.9,30.17,SSE,160,0.0,0.0,66,0.00,,---,0.00,VWS V14.01,2013-05-13 04:51:00,
2013-05-12 23:56:00,60.0,49.0,30.17,SSE,159,0.0,0.0,67,0.00,,---,0.00,VWS V14.01,2013-05-13 04:56:00,